This demonstration page uses our WeatherBlox Daily Observations layout. Learn more.

Left ArrowRight Arrow

38.20091, -84.87328

Hourly Observations for June 19, 2021

Temp ( °F °C ) Dew Point ( °F °C ) Humidity (%) Winds ( mph kmh ) Pressure ( in mb ) Visibility ( mi km ) Precip ( " mm )
12:53 am 00:53 Partly Cloudy 77 25 65 18.3 66 66 SSE 7 11 29.98 1015 10 16 0.00 0.00
1:22 am 01:22 Cloudy with Nearby Thunderstorms 76 24.4 63 17.2 64 64 NNW 15 24 30.00 1016 10 16 0.00 0.00
1:53 am 01:53 Cloudy with Nearby Thunderstorms 70 21.1 63 17.2 79 79 NE 10 17 30.03 1017 10 16 0.00 0.00
2:30 am 02:30 Cloudy with Thunderstorms 68 20 65 18.3 90 90 N 6 9 30.05 1018 10 16 0.00 0.00
2:49 am 02:49 Cloudy with Nearby Thunderstorms 66 19 64 18 94 94 VRB 5 7 30.01 1016 10 16 0.03 0.76
2:53 am 02:53 Cloudy with Nearby Thunderstorms 68 20 65 18.3 90 90 SSE 8 13 30.00 1016 10 16 0.03 0.76
3:19 am 03:19 Partly Cloudy 67 19.4 65 18.3 93 93 ESE 8 13 29.95 1014 10 16 0.01 0.25
3:53 am 03:53 Clear 68 20 64 17.8 87 87 SSE 6 9 29.93 1014 10 16 0.01 0.25
4:53 am 04:53 Clear 68 20 64 17.8 87 87 SSE 5 7 29.94 1014 10 16 0.00 0.00
5:53 am 05:53 Partly Cloudy 68 20 64 17.8 87 87 SSE 5 7 29.93 1014 10 16 0.00 0.00
6:53 am 06:53 Partly Cloudy 68 20 65 18.3 90 90 Calm 29.94 1014 10 16 0.00 0.00
7:53 am 07:53 Mostly Cloudy 69 20.6 66 18.9 90 90 Calm 29.97 1015 10 16 0.00 0.00
8:53 am 08:53 Mostly Cloudy 72 22.2 67 19.4 84 84 SSW 6 9 29.98 1015 10 16 0.00 0.00
9:53 am 09:53 Mostly Cloudy 73 22.8 65 18.3 76 76 WNW 12 19 30.01 1016 10 16 0.00 0.00
10:14 am 10:14 Mostly Cloudy 72 22.2 66 18.9 82 82 Calm 29.99 1016 10 16 0.00 0.00
10:39 am 10:39 Mostly Cloudy 71 21.7 66 18.9 84 84 E 9 15 29.95 1014 10 16 0.00 0.00
10:50 am 10:50 Mostly Cloudy 72 22 66 19 83 83 SE 20 31 29.88 1012 10 16 0.00 0.00
10:53 am 10:53 Mostly Cloudy 71 21.7 66 18.9 84 84 SE 24 39 29.85 1011 10 16 0.00 0.00
11:53 am 11:53 Sunny 75 23.9 67 19.4 76 76 S 8 13 29.90 1013 10 16 0.00 0.00
12:53 pm 12:53 Sunny 81 27.2 67 19.4 62 62 WSW 13 20 29.92 1013 10 16 0.00 0.00
1:53 pm 13:53 Mostly Sunny 83 28.3 66 18.9 57 57 W 14 22 29.94 1014 10 16 0.00 0.00
2:53 pm 14:53 Partly Cloudy 82 27.8 68 20 63 63 S 17 28 29.84 1010 10 16 0.00 0.00
3:53 pm 15:53 Sunny 84 28.9 70 21.1 63 63 SSW 16 26 29.85 1011 10 16 0.00 0.00
4:53 pm 16:53 Sunny 85 29.4 69 20.6 59 59 SW 16 26 29.83 1010 10 16 0.00 0.00
5:53 pm 17:53 Sunny 85 29.4 68 20 57 57 WSW 13 20 29.82 1010 10 16 0.00 0.00
6:53 pm 18:53 Sunny 84 28.9 68 20 59 59 SW 13 20 29.83 1010 10 16 0.00 0.00
7:53 pm 19:53 Sunny 83 28.3 70 21.1 65 65 SW 7 11 29.83 1010 10 16 0.00 0.00
8:53 pm 20:53 Sunny 80 26.7 69 20.6 69 69 SSW 6 9 29.83 1010 10 16 0.00 0.00
9:53 pm 21:53 Clear 76 24.4 69 20.6 79 79 SSW 5 7 29.82 1010 10 16 0.00 0.00
10:53 pm 22:53 Clear 75 23.9 69 20.6 82 82 Calm 29.83 1010 10 16 0.00 0.00
11:53 pm 23:53 Clear 74 23.3 69 20.6 85 85 SSW 3 6 29.84 1011 10 16 0.00 0.00

Powered by AerisWeather